Regional Weather Roundup
Issued by NWS Goodland, KS

Home | Current Version | Previous Version | Text Only | Print | Product List | Glossary On
Versions: 1 2 3 4 5 6 7 8 9 10 11 12 13 14 15 16 17 18 19 20 21 22 23 24 25 26 27 28 29 30 31 32 33 34 35 36 37 38 39 40 41 42 43 44 45 46 47 48 49 50
000
ASUS43 KGLD 260208
RWRGLD

GOODLAND FORECAST AREA HOURLY WEATHER ROUNDUP
NATIONAL WEATHER SERVICE GOODLAND KS
800 PM MDT MON JUL 25 2016

...OFFICIAL OBSERVATIONS...

CITY           SKY/WX    TMP DP  RH WIND       PRES   REMARKS
GOODLAND KS    CLEAR     75  64  68 S7        30.11F
HILL CITY KS   CLEAR     79  66  64 SE7       30.07R
IMPERIAL NEB   CLOUDY    81  61  50 S9        30.10R
MCCOOK NEB     CLEAR     81  63  54 SE10      30.07R
AKRON CO       CLOUDY    77  60  55 SE16      30.14R
BURLINGTON CO  PTCLDY    75  62  64 SE13      30.14F
LIMON CO       NOT AVBL
$$

...UNOFFICIAL OBSERVATIONS...

CITY           SKY/WX    TMP DP  RH WIND       PRES   REMARKS
COLBY KS       CLEAR     79  66  65 SE9       30.12S
LENORA KS        N/A     77  32  19 MISG        N/A
NORTON KS      CLEAR     77  57  50 SE5       30.08R
$$




USA.gov is the U.S. government's official web portal to all federal, state and local government web resources and services.